AMAZONAS 5

Last updated on Sat Oct 25 2025 00:02:51 GMT+0000 (Coordinated Universal Time)

1 42934U 17053A 25296.55669716 -.00000271 00000+0 00000+0 0 9996 2 42934 0.0380 315.0356 0003214 288.8789 287.7487 1.00273290 29679
UTC large
Height (km)
Speed (km/s)
/
Latitude / Longitude
Inclination (degrees)
Orbital Period (minutes)
Azimuth
Elevation
Range (km)
Doppler Factor

Next 0 passes for location: London (51.5072 / 0.1276)

Sorry there are no passes over London.